Temperature
16 16 17 17 17 17 16 15 15 14 13 13 12 11 11 11 10 10 9 9 9 8 8 8 8 7 7 7 7 6 6 6 6 5 5 6 6 6 6 7 7 7 7
16 16 16 16 16 16 15 15 14 13 13 12 12 11 11 10 10 10 9 9 9 9 8 8 8 7 7 7 6 6 6 5 5 5 4 4 5 6 6 7 7 7 7
15 15 15 15 15 15 14 14 13 13 12 12 11 11 11 10 10 10 10 10 9 9 8 8 8 7 7 7 6 6 5 5 5 5 4 3 3 4 5 5 5 5 5
14 14 14 14 14 14 14 13 13 13 12 12 11 11 11 11 11 10 10 9 9 9 8 8 7 7 7 6 6 6 5 5 4 4 4 4 3 2 3 3 4 4 4
14 14 13 13 13 13 13 13 12 12 12 11 11 11 10 10 10 10 10 9 9 9 8 8 7 7 7 6 6 6 5 5 4 4 4 3 3 2 0 0 2 3 3
13 13 13 13 12 12 12 12 12 12 11 11 10 10 10 10 10 9 9 9 9 8 8 8 7 7 7 6 6 5 5 4 4 4 3 3 2 2 1 0 1 1 3
13 12 12 12 12 12 12 11 11 11 11 10 10 10 9 9 9 8 8 8 8 8 8 7 7 7 6 6 6 5 5 4 4 3 3 3 3 2 2 1 0 0 1
12 12 11 11 11 11 11 11 10 10 10 10 9 9 8 8 8 8 7 7 7 7 7 7 6 6 6 5 5 5 5 4 4 3 3 3 2 2 1 1 0 -1 -1
11 11 11 10 10 10 10 10 9 9 9 9 8 8 8 7 7 7 7 6 6 6 6 6 6 5 5 5 5 4 4 4 3 3 3 2 2 1 1 1 -0 -2 -3
11 11 10 10 10 9 9 9 9 8 8 7 7 7 7 6 6 6 6 6 5 5 5 5 5 5 4 4 4 4 3 3 3 3 2 2 2 1 1 -0 -1 -2 -3
10 10 10 9 9 9 8 8 8 7 7 7 6 6 6 6 5 5 5 5 5 5 4 4 4 4 4 3 3 3 3 2 2 2 2 1 1 1 0 -0 -1 -2 -3
9 9 9 9 8 8 8 7 7 6 6 6 5 5 5 5 5 5 5 4 4 4 3 3 3 3 3 2 2 2 2 1 1 1 1 1 0 0 -0 -1 -1 -2 -3
9 8 8 8 7 7 6 6 6 5 5 5 5 5 4 4 4 4 4 3 3 3 3 2 2 2 1 1 1 1 1 1 0 0 0 0 -0 -1 -1 -1 -2 -2 -3
8 7 7 7 6 6 5 5 5 5 4 4 4 4 4 3 3 3 3 2 2 2 2 1 1 1 0 0 0 -0 -0 -0 -0 -1 -1 -1 -1 -1 -1 -2 -2 -2 -3
7 6 6 5 5 5 4 4 4 4 3 3 3 3 3 2 2 2 2 1 1 1 1 0 0 -0 -0 -1 -1 -1 -1 -1 -1 -1 -1 -1 -2 -2 -2 -2 -2 -3 -3
6 5 5 4 4 4 3 3 3 3 3 3 2 2 2 2 1 1 1 1 0 0 -0 -0 -1 -1 -1 -1 -2 -2 -2 -2 -2 -2 -2 -2 -2 -2 -2 -3 -3 -3 -3
5 4 4 3 3 3 3 3 2 2 2 2 2 1 1 1 0 -0 -0 -0 -0 -1 -1 -1 -1 -2 -2 -2 -2 -2 -3 -3 -3 -3 -3 -3 -3 -3 -3 -3 -3 -3 -3
4 3 3 3 3 3 2 2 2 2 1 1 1 0 -0 -0 -1 -1 -1 -1 -1 -2 -2 -2 -2 -2 -2 -2 -3 -3 -3 -3 -3 -3 -3 -3 -3 -3 -3 -4 -4 -4 -4
3 3 3 2 2 2 2 1 1 1 1 0 -0 -0 -1 -1 -1 -2 -2 -2 -2 -2 -3 -3 -3 -3 -3 -3 -3 -3 -3 -3 -3 -3 -3 -4 -4 -3 -4 -4 -4 -4 -4
3 3 2 2 2 2 1 1 1 0 -0 -1 -1 -1 -2 -2 -2 -2 -2 -3 -3 -3 -3 -3 -3 -3 -3 -3 -3 -4 -4 -4 -4 -4 -4 -4 -4 -4 -4 -4 -4 -5 -4
3 2 2 2 2 1 0 0 -0 -0 -1 -1 -2 -2 -2 -3 -3 -3 -3 -3 -4 -4 -4 -4 -4 -4 -4 -4 -4 -4 -4 -4 -4 -4 -4 -4 -4 -4 -4 -4 -4 -5 -5
2 2 1 1 1 1 -0 -1 -1 -1 -2 -2 -2 -2 -3 -3 -3 -4 -4 -4 -4 -4 -4 -4 -4 -4 -4 -4 -5 -5 -4 -4 -4 -4 -4 -4 -4 -4 -4 -5 -5 -5 -5
2 1 1 1 1 0 -1 -1 -1 -2 -2 -2 -3 -3 -3 -3 -4 -4 -4 -4 -5 -5 -5 -5 -5 -5 -5 -5 -5 -5 -5 -5 -5 -5 -5 -5 -5 -5 -5 -5 -5 -5 -5
1 1 0 -0 -0 -0 -1 -1 -2 -2 -3 -3 -3 -4 -4 -4 -4 -5 -5 -5 -5 -5 -6 -6 -6 -5 -5 -5 -5 -5 -5 -5 -5 -5 -5 -5 -5 -5 -5 -5 -5 -5 -5
1 0 -0 -1 -1 -1 -1 -2 -2 -3 -4 -4 -4 -4 -5 -5 -5 -5 -5 -5 -6 -6 -6 -6 -6 -6 -6 -5 -5 -5 -5 -5 -5 -5 -5 -5 -6 -6 -6 -6 -6 -6 -6
0 -0 -1 -1 -1 -2 -2 -2 -3 -4 -4 -5 -5 -5 -5 -5 -6 -6 -6 -5 -6 -6 -6 -6 -6 -6 -6 -5 -5 -5 -5 -6 -6 -6 -6 -6 -6 -6 -6 -6 -6 -6 -6
Wind_Speed
10 10 11 9 7 5 2 3 5 5 6 4 5 5 6 5 5 11 16 18 19 20 19 15 13 12 11 13 13 10 9 9 5 4 6 8 12 15 15 15 16 19 24
12 13 12 11 9 6 3 1 2 4 6 5 4 3 3 4 5 8 14 19 20 21 20 16 12 11 11 12 12 11 7 7 7 6 4 6 6 8 13 13 14 15 16
9 11 11 11 9 8 4 2 1 3 4 4 3 2 0 2 3 6 8 13 19 20 21 19 16 12 12 14 15 15 13 11 9 10 7 6 8 4 5 8 11 11 11
8 8 10 10 9 8 5 4 2 1 2 4 4 6 6 7 8 6 6 8 14 18 21 20 17 13 12 15 16 15 14 13 12 7 12 12 6 6 5 4 6 8 10
7 8 8 8 8 7 7 5 4 2 0 2 4 5 8 9 7 5 7 8 8 13 17 18 15 14 14 15 16 15 15 15 15 12 7 11 11 10 9 11 7 5 8
6 7 7 8 8 8 8 7 6 5 2 1 3 5 8 9 9 10 9 8 7 8 12 14 14 14 14 16 17 17 15 16 17 15 12 9 8 9 12 17 13 11 7
5 6 9 9 9 10 9 8 7 6 5 3 4 6 8 9 10 11 10 9 8 7 10 11 12 13 14 15 15 15 17 18 18 18 17 16 16 10 10 14 15 11 7
4 5 6 7 7 8 8 8 8 7 6 6 6 6 7 6 7 9 9 9 9 10 10 10 11 13 14 15 15 15 17 16 18 20 19 17 16 15 15 13 12 12 10
4 4 5 6 6 7 7 7 7 7 8 7 7 7 7 7 8 9 8 9 10 10 10 10 11 12 13 14 14 14 16 16 17 18 19 19 16 15 15 15 14 14 13
4 5 5 5 5 6 6 7 7 7 7 8 7 7 8 8 8 8 10 10 11 10 11 11 11 12 12 13 13 13 14 16 17 15 17 19 16 15 15 15 15 16 17
3 4 4 5 6 7 7 7 8 8 8 9 8 9 9 9 9 9 11 11 11 11 11 12 12 12 12 12 12 14 14 16 17 16 17 20 17 16 15 14 15 16 16
3 3 5 6 7 8 8 8 8 8 9 9 9 9 10 10 10 11 12 11 12 12 12 12 12 13 13 12 13 14 14 15 17 17 17 19 16 18 16 15 17 17 17
4 4 5 7 7 8 9 9 9 9 9 9 10 10 11 11 12 12 13 12 12 13 12 12 13 13 13 13 13 14 15 15 16 16 16 18 16 18 16 17 17 16 16
4 5 6 7 8 8 9 9 10 9 10 10 10 11 12 12 13 13 13 13 13 13 14 13 13 14 13 13 13 14 15 15 16 15 16 16 16 18 18 17 18 16 16
6 7 8 8 9 9 10 10 10 10 10 11 12 13 13 13 13 13 14 13 13 14 14 14 14 13 12 12 13 13 14 15 16 15 15 16 20 23 20 16 15 15 16
7 8 9 10 10 10 11 11 11 11 11 12 13 14 14 14 14 14 14 14 14 14 14 14 15 15 13 21 26 21 14 13 14 14 14 15 19 23 28 30 28 23 18
8 9 10 10 11 11 10 11 11 12 12 13 14 14 14 15 15 15 15 15 15 14 14 14 14 16 17 26 28 28 19 14 12 13 12 12 13 19 14 20 26 26 30
8 9 9 10 10 10 11 11 12 12 13 14 14 14 14 15 16 15 15 15 14 14 15 15 15 15 18 26 28 27 19 13 12 12 12 13 13 13 14 13 14 15 16
7 8 9 10 10 12 12 12 13 13 13 15 15 15 15 16 17 17 17 16 15 16 15 15 15 16 18 25 27 26 13 11 12 11 11 12 13 19 22 15 14 14 13
7 8 9 10 11 13 12 13 14 14 15 16 16 16 15 16 18 18 18 16 15 16 16 16 14 15 16 23 26 25 11 11 11 10 10 17 17 20 21 14 12 14 12
10 10 11 11 12 13 12 14 15 16 16 16 16 16 15 15 16 17 15 15 15 16 16 17 15 14 17 21 24 24 12 10 11 10 9 9 19 21 21 18 11 15 12
11 11 11 13 12 12 12 15 16 16 16 16 16 16 16 15 15 16 16 15 15 16 16 15 15 11 12 17 19 23 22 19 12 10 8 10 18 19 19 14 14 18 14
11 11 12 14 14 12 11 15 17 16 17 17 17 17 17 15 14 15 16 15 13 13 14 13 14 13 10 12 21 22 22 21 13 9 15 17 19 17 13 15 17 13 8
12 12 13 15 16 14 12 13 16 15 16 18 17 16 16 16 14 12 12 13 13 13 14 14 13 13 12 10 9 10 11 14 12 10 13 17 16 12 11 11 10 6 6
12 11 13 15 17 16 15 14 14 14 16 17 16 16 14 15 15 13 12 13 12 14 16 13 13 14 14 15 21 16 10 9 10 10 7 6 5 6 5 5 5 5 5
12 13 14 15 17 16 17 15 14 13 15 16 15 14 14 13 13 14 14 17 18 23 24 23 21 16 20 25 24 23 22 22 19 12 7 7 6 7 6 6 5 5 6
Wind_Direction
346 4 17 29 45 54 92 165 180 177 163 167 187 205 226 224 225 225 225 221 221 219 219 230 225 214 221 227 222 221 225 232 213 241 274 263 244 243 242 239 239 239 237
3 9 17 27 32 34 35 78 180 180 182 185 177 190 205 223 224 228 230 227 226 224 225 228 230 222 226 230 224 214 217 224 191 195 234 290 292 245 239 235 234 237 235
5 2 10 18 23 21 8 9 214 192 190 175 153 140 132 294 257 235 235 232 230 229 229 231 230 227 224 232 229 221 220 231 214 202 200 225 248 291 255 234 233 232 228
11 10 11 13 14 6 7 14 17 157 181 171 182 201 220 240 244 239 239 236 229 231 231 233 232 232 229 233 233 226 224 226 231 215 221 229 212 233 287 260 241 234 230
16 15 12 10 13 11 17 18 22 26 96 192 208 221 242 252 267 269 261 254 238 233 234 233 233 235 235 235 236 232 225 224 231 224 211 229 238 233 245 268 256 241 231
18 16 13 17 15 14 19 20 21 12 355 268 240 237 252 264 276 278 273 270 258 245 238 236 235 237 238 238 238 236 231 230 230 231 223 212 213 215 224 245 254 255 237
23 14 13 13 9 9 10 11 14 2 347 319 279 259 258 262 266 273 274 275 273 263 252 240 238 239 240 241 239 238 236 234 232 232 233 231 231 221 219 237 252 253 245
17 13 13 12 6 5 6 5 2 350 341 329 306 287 273 267 268 270 271 272 272 269 264 250 244 243 242 242 241 240 239 238 235 236 234 236 236 230 227 231 242 259 259
6 9 11 11 4 360 356 350 346 339 333 327 318 309 299 286 279 280 277 275 273 275 270 263 258 253 248 245 243 243 241 239 238 237 236 236 238 233 232 231 229 239 259
4 8 6 357 347 343 338 340 339 329 321 322 316 309 302 294 288 288 286 282 279 277 275 272 267 263 257 252 247 248 247 243 242 239 238 238 239 236 232 231 230 229 240
353 353 344 335 334 337 338 335 333 329 325 322 315 310 304 300 296 290 286 284 284 281 277 274 272 269 265 259 254 252 250 248 249 244 241 241 237 237 234 231 231 231 231
353 342 336 339 340 336 333 329 324 321 314 311 309 306 302 302 299 294 291 288 286 283 279 277 275 272 268 262 257 259 256 252 251 248 244 245 241 237 236 232 232 232 229
353 343 340 337 330 327 324 321 317 312 310 310 308 307 305 302 299 296 294 292 288 286 283 279 277 274 271 266 262 260 260 256 255 252 247 247 242 242 238 234 234 233 232
340 336 330 324 321 318 316 314 310 308 309 309 307 305 302 299 296 295 293 291 288 288 286 282 278 275 273 269 267 265 263 262 259 255 251 249 243 243 240 238 236 233 233
334 328 323 319 317 316 314 311 308 308 309 308 306 303 300 297 295 293 292 291 288 287 285 284 282 277 275 273 269 264 262 262 262 258 253 250 249 248 246 243 238 231 232
322 320 319 318 314 311 310 309 308 308 308 305 303 302 301 299 296 295 294 293 291 290 287 285 283 282 281 284 287 286 273 263 260 261 257 254 258 259 259 255 248 235 229
315 315 313 308 306 306 306 307 303 305 305 301 300 300 299 298 297 297 296 294 294 292 290 286 283 283 283 289 291 290 287 275 265 261 261 262 258 261 253 257 258 253 243
311 309 307 307 306 304 304 302 302 302 301 300 299 298 298 298 300 299 296 295 294 293 292 290 287 286 287 293 294 294 291 280 270 262 259 261 261 256 254 248 248 248 249
298 296 296 297 299 300 300 302 302 302 302 301 300 300 300 302 303 302 301 299 298 296 294 292 290 289 291 294 296 295 286 279 272 265 259 259 257 261 263 257 249 249 247
299 298 298 300 300 300 302 304 304 304 303 303 302 302 301 301 301 301 300 299 297 296 297 295 292 289 290 293 296 296 288 282 279 272 263 266 266 266 265 255 246 248 246
297 298 299 299 297 299 304 303 302 301 300 301 302 302 300 298 298 298 298 298 299 299 298 295 293 289 290 295 298 298 294 282 280 278 273 264 271 271 269 262 248 248 245
299 299 298 298 297 297 299 299 300 301 302 303 303 303 302 301 302 299 300 299 300 301 300 299 299 294 292 296 297 298 297 295 286 281 276 271 277 274 271 267 258 255 251
295 295 295 298 298 294 290 294 299 303 305 305 304 305 304 302 299 299 301 304 303 301 301 301 301 302 296 295 300 302 302 300 296 283 282 283 284 282 274 270 267 260 245
296 298 299 300 301 300 295 291 296 302 303 304 306 306 306 305 303 300 300 301 302 302 301 302 302 302 301 296 293 290 293 295 292 289 286 287 287 283 274 270 270 255 236
296 296 296 297 299 302 301 299 300 303 303 304 305 306 304 303 305 303 298 299 293 294 301 301 301 303 302 301 304 304 298 295 286 291 282 276 277 271 262 256 254 245 238
295 297 296 297 300 303 303 303 302 302 303 307 308 307 305 304 305 305 304 299 299 303 304 304 303 301 300 305 309 311 310 308 303 299 286 276 268 267 262 255 248 238 234
Height
1509 1506 1503 1501 1500 1500 1500 1500 1502 1503 1505 1506 1508 1509 1510 1512 1513 1514 1515 1515 1516 1516 1516 1516 1515 1515 1514 1514 1514 1514 1513 1512 1513 1510 1506 1504 1503 1501 1501 1502 1502 1503 1504
1510 1508 1506 1505 1503 1502 1502 1502 1502 1503 1504 1505 1507 1507 1508 1508 1509 1510 1509 1509 1509 1509 1508 1507 1507 1506 1505 1505 1505 1504 1503 1502 1503 1502 1499 1494 1490 1487 1489 1489 1489 1491 1492
1512 1511 1509 1508 1506 1505 1504 1504 1504 1504 1504 1505 1505 1505 1505 1505 1504 1504 1504 1504 1503 1502 1501 1500 1499 1497 1496 1495 1495 1494 1493 1492 1492 1492 1493 1489 1480 1479 1476 1477 1478 1479 1480
1515 1514 1512 1510 1509 1508 1507 1506 1505 1505 1504 1504 1504 1504 1503 1501 1501 1500 1498 1497 1496 1495 1493 1492 1490 1488 1487 1485 1484 1484 1482 1482 1480 1480 1479 1479 1477 1476 1468 1466 1467 1468 1468
1516 1515 1514 1513 1512 1510 1509 1507 1506 1505 1505 1504 1503 1502 1500 1498 1497 1495 1493 1491 1490 1488 1486 1484 1482 1480 1478 1476 1475 1473 1471 1470 1469 1468 1467 1466 1465 1464 1463 1456 1454 1456 1456
1517 1517 1516 1514 1513 1512 1510 1509 1507 1506 1505 1503 1502 1500 1497 1495 1492 1490 1488 1485 1483 1481 1479 1476 1473 1471 1469 1466 1465 1463 1461 1459 1457 1457 1455 1454 1453 1451 1451 1447 1443 1443 1443
1518 1517 1516 1515 1513 1512 1510 1509 1507 1505 1503 1502 1499 1497 1494 1491 1488 1485 1482 1479 1476 1473 1471 1468 1465 1462 1460 1457 1455 1452 1450 1448 1446 1444 1443 1442 1440 1441 1440 1438 1434 1432 1430
1517 1517 1516 1514 1513 1511 1510 1508 1506 1504 1501 1499 1496 1493 1490 1487 1483 1480 1476 1473 1469 1466 1463 1460 1456 1453 1450 1447 1445 1441 1439 1437 1434 1433 1432 1430 1428 1428 1427 1427 1427 1423 1419
1517 1516 1515 1514 1512 1511 1509 1506 1504 1501 1498 1495 1492 1489 1486 1482 1478 1474 1470 1466 1462 1458 1454 1451 1447 1444 1441 1438 1434 1430 1428 1426 1423 1421 1419 1417 1416 1416 1415 1415 1416 1416 1409
1516 1515 1514 1513 1511 1509 1507 1504 1501 1498 1494 1491 1487 1484 1480 1476 1472 1467 1463 1458 1454 1450 1445 1442 1438 1434 1431 1427 1424 1420 1417 1414 1411 1409 1407 1405 1404 1403 1403 1403 1403 1403 1401
1514 1513 1512 1511 1510 1507 1505 1501 1498 1494 1490 1486 1482 1478 1474 1469 1465 1460 1455 1450 1445 1441 1436 1432 1428 1424 1420 1417 1413 1409 1406 1403 1399 1398 1395 1393 1392 1391 1390 1390 1390 1390 1389
1513 1512 1511 1509 1507 1504 1501 1497 1493 1489 1485 1481 1476 1472 1467 1462 1457 1452 1447 1442 1436 1432 1427 1422 1417 1413 1409 1406 1402 1398 1395 1391 1388 1385 1384 1381 1381 1379 1378 1378 1377 1376 1376
1511 1510 1508 1506 1503 1500 1497 1493 1489 1484 1480 1475 1470 1465 1460 1454 1449 1443 1438 1433 1427 1422 1417 1412 1407 1403 1399 1395 1391 1387 1383 1380 1376 1374 1371 1369 1369 1366 1366 1365 1364 1363 1364
1509 1508 1506 1503 1500 1496 1492 1488 1483 1479 1474 1468 1463 1458 1452 1446 1440 1435 1429 1424 1418 1412 1407 1402 1397 1392 1388 1384 1380 1376 1372 1368 1364 1362 1360 1358 1356 1354 1354 1353 1351 1352 1352
1507 1505 1502 1499 1495 1491 1487 1483 1478 1473 1468 1462 1456 1450 1445 1439 1432 1426 1420 1415 1409 1403 1398 1392 1387 1382 1378 1373 1369 1364 1360 1356 1352 1350 1348 1346 1345 1343 1342 1340 1339 1339 1339
1505 1502 1499 1495 1491 1487 1482 1477 1472 1467 1461 1455 1449 1443 1436 1430 1424 1418 1412 1405 1399 1394 1388 1382 1377 1372 1367 1363 1359 1355 1350 1345 1342 1339 1336 1335 1333 1332 1330 1330 1329 1328 1327
1502 1499 1495 1491 1487 1482 1477 1471 1466 1460 1454 1448 1442 1435 1429 1422 1415 1409 1403 1396 1390 1384 1378 1372 1367 1361 1357 1353 1349 1345 1341 1336 1332 1329 1326 1324 1322 1321 1319 1318 1317 1317 1317
1498 1495 1491 1487 1482 1477 1472 1466 1460 1454 1447 1440 1434 1427 1421 1413 1407 1400 1394 1387 1381 1374 1368 1362 1357 1351 1346 1343 1338 1334 1330 1325 1322 1319 1317 1314 1311 1310 1309 1306 1305 1305 1305
1495 1491 1487 1482 1477 1472 1466 1459 1453 1447 1440 1433 1426 1420 1413 1406 1399 1391 1385 1378 1372 1365 1359 1353 1347 1342 1336 1333 1328 1324 1319 1315 1312 1309 1307 1305 1302 1300 1299 1297 1295 1294 1294
1491 1487 1482 1477 1472 1466 1460 1453 1446 1439 1432 1425 1419 1412 1406 1399 1391 1384 1377 1370 1364 1357 1350 1344 1339 1333 1327 1323 1320 1316 1311 1307 1303 1300 1298 1296 1293 1291 1290 1289 1287 1286 1285
1486 1482 1477 1472 1466 1460 1453 1446 1439 1432 1425 1418 1411 1404 1398 1391 1383 1376 1369 1362 1355 1349 1342 1336 1330 1325 1320 1315 1311 1308 1304 1300 1295 1292 1289 1287 1285 1283 1282 1281 1279 1278 1279
1480 1476 1471 1465 1460 1454 1447 1439 1432 1425 1418 1410 1402 1395 1389 1383 1376 1368 1361 1355 1348 1341 1334 1327 1321 1317 1312 1308 1303 1300 1297 1293 1289 1285 1282 1279 1277 1276 1274 1273 1272 1272 1272
1475 1470 1464 1458 1452 1447 1440 1432 1424 1417 1409 1402 1394 1387 1380 1374 1368 1361 1354 1347 1341 1334 1327 1321 1315 1309 1304 1300 1297 1293 1289 1285 1282 1278 1275 1272 1270 1268 1267 1266 1266 1266 1265
1469 1463 1457 1450 1444 1438 1432 1425 1418 1410 1402 1394 1386 1379 1372 1365 1359 1354 1348 1341 1334 1328 1321 1315 1309 1303 1298 1294 1290 1286 1282 1278 1275 1271 1268 1265 1263 1261 1260 1259 1259 1258 1258
1462 1457 1450 1443 1436 1430 1423 1417 1410 1403 1394 1386 1379 1372 1365 1358 1351 1346 1341 1334 1328 1324 1317 1310 1305 1299 1292 1288 1285 1281 1276 1272 1268 1265 1261 1258 1256 1254 1253 1252 1252 1252 1252
1455 1449 1443 1436 1429 1422 1415 1409 1402 1395 1388 1379 1372 1365 1358 1352 1345 1338 1331 1326 1322 1316 1311 1305 1300 1294 1289 1283 1279 1275 1270 1266 1263 1259 1254 1252 1250 1248 1247 1246 1245 1245 1245